Time,TemperatureF,DewpointF,PressureIn,WindDirection,WindDirectionDegrees,WindSpeedMPH,WindSpeedGustMPH,Humidity,HourlyPrecipIn,Conditions,Clouds,dailyrainin,SoftwareType,DateUTC
2013-01-04 00:02:00,6.3,1.0,30.48,NE,44,1.0,3.0,78,0.00,,,0.00,weatherlink.com 1.10,2013-01-04 07:02:00,
2013-01-04 00:17:00,5.4,0.0,30.47,NE,44,2.0,3.0,78,0.00,,,0.00,weatherlink.com 1.10,2013-01-04 07:17:00,
2013-01-04 00:32:00,5.0,0.0,30.46,NE,44,0.0,3.0,78,0.00,,,0.00,weatherlink.com 1.10,2013-01-04 07:32:00,
2013-01-04 00:47:00,4.7,0.0,30.46,NE,44,2.0,3.0,81,0.00,,,0.00,weatherlink.com 1.10,2013-01-04 07:47:00,
2013-01-04 01:02:00,4.9,1.0,30.46,NE,44,0.0,2.0,82,0.00,,,0.00,weatherlink.com 1.10,2013-01-04 08:02:00,
2013-01-04 01:17:00,8.3,4.0,30.45,NE,44,0.0,4.0,83,0.00,,,0.00,weatherlink.com 1.10,2013-01-04 08:17:00,
2013-01-04 01:32:00,7.1,2.0,30.45,NE,44,0.0,4.0,79,0.00,,,0.00,weatherlink.com 1.10,2013-01-04 08:32:00,
2013-01-04 01:47:00,5.6,-1.0,30.45,NE,44,3.0,4.0,75,0.00,,,0.00,weatherlink.com 1.10,2013-01-04 08:47:00,
2013-01-04 02:02:00,7.0,2.0,30.45,NE,44,3.0,6.0,80,0.00,,,0.00,weatherlink.com 1.10,2013-01-04 09:02:00,
2013-01-04 02:17:00,7.1,2.0,30.45,NE,44,2.0,4.0,80,0.00,,,0.00,weatherlink.com 1.10,2013-01-04 09:17:00,
2013-01-04 02:32:00,7.0,1.0,30.45,NE,44,1.0,4.0,77,0.00,,,0.00,weatherlink.com 1.10,2013-01-04 09:32:00,
2013-01-04 02:47:00,6.1,0.0,30.44,NE,44,0.0,2.0,77,0.00,,,0.00,weatherlink.com 1.10,2013-01-04 09:47:00,
2013-01-04 03:02:00,5.6,0.0,30.44,NE,44,0.0,4.0,79,0.00,,,0.00,weatherlink.com 1.10,2013-01-04 10:02:00,
2013-01-04 03:18:00,5.7,1.0,30.43,NE,44,0.0,7.0,79,0.00,,,0.00,weatherlink.com 1.10,2013-01-04 10:18:00,
2013-01-04 03:33:00,4.8,-1.0,30.43,NE,44,0.0,4.0,78,0.00,,,0.00,weatherlink.com 1.10,2013-01-04 10:33:00,
2013-01-04 03:48:00,6.7,2.0,30.43,NE,44,2.0,5.0,82,0.00,,,0.00,weatherlink.com 1.10,2013-01-04 10:48:00,
2013-01-04 04:03:00,7.8,3.0,30.42,NE,44,3.0,4.0,79,0.00,,,0.00,weatherlink.com 1.10,2013-01-04 11:03:00,
2013-01-04 04:18:00,8.9,3.0,30.43,NE,44,4.0,6.0,78,0.00,,,0.00,weatherlink.com 1.10,2013-01-04 11:18:00,
2013-01-04 04:33:00,8.8,2.0,30.43,NE,44,0.0,4.0,75,0.00,,,0.00,weatherlink.com 1.10,2013-01-04 11:33:00,
2013-01-04 04:48:00,8.7,3.0,30.43,NE,44,0.0,2.0,76,0.00,,,0.00,weatherlink.com 1.10,2013-01-04 11:48:00,
2013-01-04 05:03:00,10.4,4.0,30.43,NE,44,7.0,8.0,74,0.00,,,0.00,weatherlink.com 1.10,2013-01-04 12:03:00,
2013-01-04 05:18:00,9.0,2.0,30.43,NE,44,6.0,9.0,74,0.00,,,0.00,weatherlink.com 1.10,2013-01-04 12:18:00,
2013-01-04 05:33:00,7.6,1.0,30.44,NE,44,3.0,6.0,75,0.00,,,0.00,weatherlink.com 1.10,2013-01-04 12:33:00,
2013-01-04 05:48:00,6.8,1.0,30.45,NE,44,0.0,4.0,77,0.00,,,0.00,weatherlink.com 1.10,2013-01-04 12:48:00,
2013-01-04 06:03:00,8.0,3.0,30.45,NE,44,0.0,2.0,78,0.00,,,0.00,weatherlink.com 1.10,2013-01-04 13:03:00,
2013-01-04 06:18:00,8.7,3.0,30.45,NE,44,3.0,4.0,76,0.00,,,0.00,weatherlink.com 1.10,2013-01-04 13:18:00,
2013-01-04 06:33:00,9.9,4.0,30.44,NE,44,4.0,5.0,76,0.00,,,0.00,weatherlink.com 1.10,2013-01-04 13:33:00,
2013-01-04 06:48:00,9.5,3.0,30.44,NE,44,0.0,3.0,75,0.00,,,0.00,weatherlink.com 1.10,2013-01-04 13:48:00,
2013-01-04 07:03:00,9.4,3.0,30.44,NE,44,0.0,2.0,76,0.00,,,0.00,weatherlink.com 1.10,2013-01-04 14:03:00,
2013-01-04 07:19:00,9.6,3.0,30.44,NE,44,2.0,4.0,75,0.00,,,0.00,weatherlink.com 1.10,2013-01-04 14:19:00,
2013-01-04 07:34:00,8.4,2.0,30.45,NE,44,2.0,4.0,75,0.00,,,0.00,weatherlink.com 1.10,2013-01-04 14:34:00,
2013-01-04 07:49:00,7.6,2.0,30.45,NE,44,2.0,2.0,77,0.00,,,0.00,weatherlink.com 1.10,2013-01-04 14:49:00,
2013-01-04 08:04:00,8.0,3.0,30.46,NE,44,1.0,2.0,79,0.00,,,0.00,weatherlink.com 1.10,2013-01-04 15:04:00,
2013-01-04 08:19:00,9.8,4.0,30.46,NE,44,2.0,2.0,77,0.00,,,0.00,weatherlink.com 1.10,2013-01-04 15:19:00,
2013-01-04 08:34:00,11.6,6.0,30.46,NE,44,3.0,3.0,78,0.00,,,0.00,weatherlink.com 1.10,2013-01-04 15:34:00,
2013-01-04 08:49:00,15.4,9.0,30.46,NE,44,2.0,4.0,75,0.00,,,0.00,weatherlink.com 1.10,2013-01-04 15:49:00,
2013-01-04 09:04:00,19.9,10.0,30.45,NE,44,2.0,5.0,65,0.00,,,0.00,weatherlink.com 1.10,2013-01-04 16:04:00,
2013-01-04 09:19:00,21.8,9.0,30.45,NE,44,5.0,5.0,58,0.00,,,0.00,weatherlink.com 1.10,2013-01-04 16:19:00,
2013-01-04 09:34:00,17.9,8.0,30.45,NE,44,3.0,6.0,65,0.00,,,0.00,weatherlink.com 1.10,2013-01-04 16:34:00,
2013-01-04 09:49:00,17.7,8.0,30.46,NE,44,3.0,5.0,65,0.00,,,0.00,weatherlink.com 1.10,2013-01-04 16:49:00,
2013-01-04 10:04:00,18.3,8.0,30.45,NE,44,2.0,5.0,63,0.00,,,0.00,weatherlink.com 1.10,2013-01-04 17:04:00,
2013-01-04 10:19:00,19.5,8.0,30.46,NE,44,1.0,2.0,61,0.00,,,0.00,weatherlink.com 1.10,2013-01-04 17:19:00,
2013-01-04 10:34:00,20.6,8.0,30.46,NE,44,0.0,5.0,59,0.00,,,0.00,weatherlink.com 1.10,2013-01-04 17:34:00,
2013-01-04 10:50:00,21.7,9.0,30.45,NE,44,0.0,2.0,58,0.00,,,0.00,weatherlink.com 1.10,2013-01-04 17:50:00,
2013-01-04 11:05:00,23.3,9.0,30.45,NE,44,0.0,2.0,55,0.00,,,0.00,weatherlink.com 1.10,2013-01-04 18:05:00,
2013-01-04 11:20:00,24.3,10.0,30.44,NE,44,0.0,2.0,55,0.00,,,0.00,weatherlink.com 1.10,2013-01-04 18:20:00,
2013-01-04 11:35:00,26.0,11.0,30.42,NE,44,3.0,3.0,53,0.00,,,0.00,weatherlink.com 1.10,2013-01-04 18:35:00,
2013-01-04 11:50:00,27.0,11.0,30.41,NE,44,0.0,1.0,51,0.00,,,0.00,weatherlink.com 1.10,2013-01-04 18:50:00,
2013-01-04 12:05:00,27.3,11.0,30.40,NE,44,2.0,3.0,51,0.00,,,0.00,weatherlink.com 1.10,2013-01-04 19:05:00,
2013-01-04 12:20:00,26.1,11.0,30.39,NE,44,1.0,3.0,52,0.00,,,0.00,weatherlink.com 1.10,2013-01-04 19:20:00,
2013-01-04 12:35:00,26.1,11.0,30.39,NE,44,1.0,4.0,52,0.00,,,0.00,weatherlink.com 1.10,2013-01-04 19:35:00,
2013-01-04 12:50:00,26.4,10.0,30.38,NE,44,2.0,4.0,50,0.00,,,0.00,weatherlink.com 1.10,2013-01-04 19:50:00,
2013-01-04 13:05:00,26.6,10.0,30.37,NE,44,2.0,5.0,49,0.00,,,0.00,weatherlink.com 1.10,2013-01-04 20:05:00,
2013-01-04 13:20:00,27.0,10.0,30.38,NE,44,4.0,5.0,48,0.00,,,0.00,weatherlink.com 1.10,2013-01-04 20:20:00,
2013-01-04 13:35:00,29.0,11.0,30.36,NE,44,0.0,4.0,47,0.00,,,0.00,weatherlink.com 1.10,2013-01-04 20:35:00,
2013-01-04 13:51:00,29.9,11.0,30.36,NE,44,0.0,3.0,45,0.00,,,0.00,weatherlink.com 1.10,2013-01-04 20:51:00,
2013-01-04 14:06:00,31.7,10.0,30.36,NE,44,1.0,5.0,41,0.00,,,0.00,weatherlink.com 1.10,2013-01-04 21:06:00,
2013-01-04 14:21:00,33.3,11.0,30.36,NE,44,0.0,0.0,39,0.00,,,0.00,weatherlink.com 1.10,2013-01-04 21:21:00,
2013-01-04 14:36:00,32.9,9.0,30.37,NE,44,1.0,4.0,36,0.00,,,0.00,weatherlink.com 1.10,2013-01-04 21:36:00,
2013-01-04 14:51:00,32.9,9.0,30.36,NE,44,0.0,2.0,37,0.00,,,0.00,weatherlink.com 1.10,2013-01-04 21:51:00,
2013-01-04 15:06:00,33.2,9.0,30.37,NE,44,4.0,5.0,36,0.00,,,0.00,weatherlink.com 1.10,2013-01-04 22:06:00,
2013-01-04 15:21:00,30.9,10.0,30.38,NE,44,0.0,3.0,41,0.00,,,0.00,weatherlink.com 1.10,2013-01-04 22:21:00,
2013-01-04 15:36:00,31.1,10.0,30.38,NE,44,0.0,2.0,42,0.00,,,0.00,weatherlink.com 1.10,2013-01-04 22:36:00,
2013-01-04 15:51:00,30.7,10.0,30.39,NE,44,0.0,1.0,42,0.00,,,0.00,weatherlink.com 1.10,2013-01-04 22:51:00,
2013-01-04 16:06:00,31.4,10.0,30.39,NE,44,0.0,1.0,41,0.00,,,0.00,weatherlink.com 1.10,2013-01-04 23:06:00,
2013-01-04 16:21:00,29.8,10.0,30.39,NE,44,0.0,1.0,43,0.00,,,0.00,weatherlink.com 1.10,2013-01-04 23:21:00,
2013-01-04 16:36:00,28.1,10.0,30.39,NE,44,0.0,0.0,46,0.00,,,0.00,weatherlink.com 1.10,2013-01-04 23:36:00,
2013-01-04 16:51:00,26.6,10.0,30.40,NE,44,3.0,3.0,50,0.00,,,0.00,weatherlink.com 1.10,2013-01-04 23:51:00,
2013-01-04 17:06:00,23.9,8.0,30.40,NE,44,1.0,4.0,52,0.00,,,0.00,weatherlink.com 1.10,2013-01-05 00:06:00,
2013-01-04 17:21:00,21.5,8.0,30.40,NE,44,0.0,3.0,56,0.00,,,0.00,weatherlink.com 1.10,2013-01-05 00:21:00,
2013-01-04 17:37:00,17.3,7.0,30.40,NE,44,5.0,6.0,65,0.00,,,0.00,weatherlink.com 1.10,2013-01-05 00:37:00,
2013-01-04 17:52:00,13.8,5.0,30.40,NE,44,6.0,7.0,69,0.00,,,0.00,weatherlink.com 1.10,2013-01-05 00:52:00,
2013-01-04 18:07:00,13.3,6.0,30.40,NE,44,7.0,8.0,71,0.00,,,0.00,weatherlink.com 1.10,2013-01-05 01:07:00,
2013-01-04 18:22:00,13.5,6.0,30.40,NE,44,2.0,7.0,71,0.00,,,0.00,weatherlink.com 1.10,2013-01-05 01:22:00,
2013-01-04 18:37:00,12.3,5.0,30.41,NE,44,2.0,3.0,72,0.00,,,0.00,weatherlink.com 1.10,2013-01-05 01:37:00,
2013-01-04 18:52:00,12.9,6.0,30.41,NE,44,1.0,3.0,74,0.00,,,0.00,weatherlink.com 1.10,2013-01-05 01:52:00,
2013-01-04 19:07:00,11.6,5.0,30.41,NE,44,2.0,6.0,75,0.00,,,0.00,weatherlink.com 1.10,2013-01-05 02:07:00,
2013-01-04 19:22:00,11.2,5.0,30.41,NE,44,6.0,8.0,76,0.00,,,0.00,weatherlink.com 1.10,2013-01-05 02:22:00,
2013-01-04 19:37:00,15.7,8.0,30.40,NE,44,6.0,8.0,71,0.00,,,0.00,weatherlink.com 1.10,2013-01-05 02:37:00,
2013-01-04 19:52:00,14.0,7.0,30.40,NE,44,8.0,8.0,72,0.00,,,0.00,weatherlink.com 1.10,2013-01-05 02:52:00,
2013-01-04 20:07:00,12.7,6.0,30.40,NE,52,4.0,6.0,74,0.00,,,0.00,weatherlink.com 1.10,2013-01-05 03:07:00,
2013-01-04 20:22:00,11.4,5.0,30.41,NE,52,0.0,3.0,75,0.00,,,0.00,weatherlink.com 1.10,2013-01-05 03:22:00,
2013-01-04 20:37:00,11.8,6.0,30.40,NE,52,0.0,2.0,76,0.00,,,0.00,weatherlink.com 1.10,2013-01-05 03:37:00,
2013-01-04 20:53:00,9.8,2.0,30.40,NE,52,5.0,5.0,72,0.00,,,0.00,weatherlink.com 1.10,2013-01-05 03:53:00,
2013-01-04 21:08:00,11.0,5.0,30.39,NE,52,4.0,6.0,78,0.00,,,0.00,weatherlink.com 1.10,2013-01-05 04:08:00,
2013-01-04 21:23:00,10.8,5.0,30.39,NE,52,0.0,4.0,77,0.00,,,0.00,weatherlink.com 1.10,2013-01-05 04:23:00,
2013-01-04 21:38:00,10.7,5.0,30.39,NE,52,5.0,6.0,77,0.00,,,0.00,weatherlink.com 1.10,2013-01-05 04:38:00,
2013-01-04 21:53:00,8.4,3.0,30.40,NE,51,7.0,8.0,77,0.00,,,0.00,weatherlink.com 1.10,2013-01-05 04:53:00,
2013-01-04 22:09:00,9.1,4.0,30.40,NE,51,4.0,6.0,78,0.00,,,0.00,weatherlink.com 1.10,2013-01-05 05:09:00,
2013-01-04 22:23:00,8.2,4.0,30.40,NE,51,2.0,5.0,81,0.00,,,0.00,weatherlink.com 1.10,2013-01-05 05:23:00,
2013-01-04 22:38:00,10.5,5.0,30.40,NE,51,3.0,6.0,78,0.00,,,0.00,weatherlink.com 1.10,2013-01-05 05:38:00,
2013-01-04 22:53:00,9.5,4.0,30.41,NE,53,5.0,6.0,79,0.00,,,0.00,weatherlink.com 1.10,2013-01-05 05:53:00,
2013-01-04 23:08:00,9.8,5.0,30.43,NE,53,2.0,4.0,80,0.00,,,0.00,weatherlink.com 1.10,2013-01-05 06:08:00,
2013-01-04 23:23:00,10.7,6.0,30.42,NE,53,8.0,9.0,80,0.00,,,0.00,weatherlink.com 1.10,2013-01-05 06:23:00,
2013-01-04 23:38:00,10.9,5.0,30.44,NE,53,5.0,6.0,77,0.00,,,0.00,weatherlink.com 1.10,2013-01-05 06:38:00,
2013-01-04 23:53:00,11.1,6.0,30.43,NE,53,7.0,7.0,78,0.00,,,0.00,weatherlink.com 1.10,2013-01-05 06:53:00,